User: anonymous   Login
Location: Bowman Observatory
(41.0326°N, 73.6210°W)
Time: 04:14:15
(UTC-04:00)
Language:

Cosmos 2297 - Orbit

View from above orbital plane
View from above orbital plane
View from above satellite
View from above satellite

Ground track
Ground track

The orbit data is extracted from the following two-line orbital elements,

1 23404U 94077A   15148.93316531 -.00000139  00000-0 -48564-4 0  9996
2 23404 071.0168 063.4725 0016688 217.0238 213.8493 14.13449652 58054
Epoch (UTC): 28 May 2015 22:23:45
Eccentricity: 0.0016688
inclination: 71.0168°
perigee height: 835 km
apogee height: 859 km
right ascension of ascending node: 63.4725°
argument of perigee: 217.0238°
revolutions per day: 14.13449652
mean anomaly at epoch: 213.8493°
orbit number at epoch: 5805

The dashed part of the orbit path shows where the satellite is in the earth's shadow,  

DLR